Regional Weather Roundup
Issued by NWS

Home | Current Version | Previous Version | Text Only | Print | Product List | Glossary Off
Versions: 1 2 3 4 5 6 7 8 9 10 11 12 13 14 15 16 17 18 19 20 21 22 23 24 25 26 27 28 29 30 31 32 33 34 35 36 37 38 39 40 41 42 43 44 45 46 47 48 49 50

000
ASUS44 KMEG 160400
RWRTN
TENNESSEE HOURLY STATE WEATHER ROUNDUP
NATIONAL WEATHER SERVICE MEMPHIS TN
1000 PM CST MON JAN 15 2018

TNZ002-004-019-021-049-052-054-088>092-160500-
WEST TENNESSEE

CITY           SKY/WX    TMP DP  RH WIND       PRES   REMARKS
MEMPHIS INTL   LGT SNOW  30  27  88 N10       30.48S FOG     WCI  21
NWS MEMPHIS      N/A     29 N/A N/A MISG        N/A
JACKSON        LGT SNOW  30  28  92 NW13      30.47R FOG     WCI  20
DYERSBURG      LGT SNOW  25  22  88 N8        30.52R FOG     WCI  16
$$

TNZ008-025-027-028-033-062-065-066-160500-
NORTH MIDDLE TENNESSEE

CITY           SKY/WX    TMP DP  RH WIND       PRES   REMARKS
NASHVILLE      CLOUDY    33  25  72 N7G20     30.42R WCI  27
CLARKSVILLE    LGT SNOW  23  19  85 N13       30.47R FOG     WCI  11
SMYRNA         CLOUDY    33  27  78 N14       30.42R WCI  23
CROSSVILLE     FAIR      33  19  56 S5        30.31F WCI  29
$$

TNZ061-075-076-078-094-096-097-160500-
SOUTH MIDDLE TENNESSEE

CITY           SKY/WX    TMP DP  RH WIND       PRES   REMARKS
WINCHESTER     CLEAR     28  21  74 CALM      30.35F
$$

TNZ017-018-042-046-047-160500-
NORTHEAST TENNESSEE

CITY           SKY/WX    TMP DP  RH WIND       PRES   REMARKS
TRI CITIES     FAIR      25  23  92 CALM      30.35S
$$

TNZ012-013-036-069-073-074-160500-
CENTRAL EAST TENNESSEE

CITY           SKY/WX    TMP DP  RH WIND       PRES   REMARKS
KNOXVILLE      FAIR      34  23  64 SW5       30.35S WCI  30
OAK RIDGE      FAIR      29  24  82 CALM      30.38R
$$

TNZ083-085-099-160500-
SOUTHEAST TENNESSEE

CITY           SKY/WX    TMP DP  RH WIND       PRES   REMARKS
CHATTANOOGA    FAIR      32  24  72 CALM      30.40R
$$

SKY/WX REPORTED AS FAIR MEANS FEW OR NO CLOUDS BELOW
12 THOUSAND FEET.





USA.gov is the U.S. government's official web portal to all federal, state and local government web resources and services.